Barrow, AK

8:39 PM AKDT on June 24, 2018 (GMT -0800)
Wiley Post-Will Rogers Memorial

Weather History for PABR - November, 2017

Change the Weather History Date:

Sunday, November 12, 2017

  Actual Average Record
Temperature  
Mean Temperature 30 °F 2 °F  
Max Temperature 34 °F 7 °F 36 °F (1937)
Min Temperature 26 °F -4 °F -27 °F (1955)
Degree Days  
Heating Degree Days 35 63  
Month to date heating degree days 352 726  
Since 1 July heating degree days 3852 4749  
Cooling Degree Days 0 0  
Month to date cooling degree days 0 0  
Year to date cooling degree days 0 0  
Moisture  
Dew Point 30 °F    
Average Humidity 95    
Maximum Humidity 100    
Minimum Humidity 89    
Precipitation  
Precipitation 0.05 in 0.01 in 0.16 in (1937)
Month to date precipitation 0.64 0.10  
Year to date precipitation 7.68 4.28  
Snow  
Snow 0.30 in 0.20 in 2.30 in (2001)
Month to date snowfall 4.3 2.7  
Since 1 July snowfall 12.2 17.3  
Since 1 September snowfall 11.4 16.2  
Snow Depth 4.00 in    
Sea Level Pressure  
Sea Level Pressure 29.54 in    
Wind  
Wind Speed 18 mph (WNW)    
Max Wind Speed 28 mph    
Max Gust Speed 32 mph    
Visibility 4 miles    
Events Rain , Snow    
T = Trace of Precipitation, MM = Missing Value Source: NWS Daily Summary

Daily Weather History Graph

Daily Weather History Graph

Search for Another Location

Airport or City:

Astronomy

Nov. 12, 2017 Rise Set
Actual Time 11:31 AM AKST 2:49 PM AKST
Civil Twilight 9:41 AM AKST 4:39 PM AKST
Nautical Twilight 8:14 AM AKST 6:06 PM AKST
Astronomical Twilight 6:57 AM AKST 7:23 PM AKST
Moon 12:47 AM AKST (11/12) 4:40 PM AKST (11/12)
Length of Visible Light 6h 57m
Length of Day
3h 18m
Waning Crescent, 29% of the Moon is Illuminated
Nov 12
Waning Crescent
Nov 18
New
Nov 26
First Quarter
Dec 3
Full
Dec 9
Last Quarter

Hourly Weather History & Observations

Time (AKST) Temp. Windchill Dew Point Humidity Pressure Visibility Wind Dir Wind Speed Gust Speed Precip Events Conditions
12:53 AM 27.0 °F 11.6 °F 26.1 °F 96% 29.45 in 2.0 mi South 26.5 mph - 0.00 in Snow Light Snow
1:34 AM 26.1 °F 10.7 °F 25.0 °F 96% 29.42 in 1.5 mi South 25.3 mph 32.2 mph 0.00 in Snow Light Snow
1:53 AM 27.0 °F 11.3 °F 25.0 °F 92% 29.42 in 1.2 mi South 27.6 mph - 0.01 in Snow Light Snow
2:28 AM 27.0 °F 11.9 °F 26.1 °F 96% 29.39 in 1.0 mi South 25.3 mph - 0.00 in Snow Light Snow
2:53 AM 27.0 °F 11.9 °F 26.1 °F 96% 29.39 in 1.2 mi South 25.3 mph - 0.00 in Snow Light Snow
3:26 AM 27.0 °F 12.8 °F 26.1 °F 96% 29.38 in 1.8 mi South 21.9 mph - 0.01 in Snow Light Snow
3:53 AM 26.1 °F 11.6 °F 25.0 °F 96% 29.37 in 2.5 mi South 21.9 mph - 0.01 in Snow Light Snow
3:59 AM 26.1 °F 12.3 °F 25.0 °F 96% 29.37 in 3.0 mi South 19.6 mph 27.6 mph 0.00 in Snow Light Snow
4:15 AM 27.0 °F 13.5 °F 24.1 °F 89% 29.36 in 6.0 mi South 19.6 mph - 0.00 in Snow Light Snow
4:31 AM 27.0 °F 13.9 °F 25.0 °F 92% 29.36 in 3.0 mi South 18.4 mph - 0.00 in Snow Light Snow
4:53 AM 27.0 °F 13.2 °F 25.0 °F 92% 29.36 in 4.0 mi South 20.7 mph - 0.00 in Snow Light Snow
5:11 AM 27.0 °F 14.3 °F 25.0 °F 92% 29.35 in 9.0 mi South 17.3 mph - 0.00 in Snow Light Snow
5:22 AM 26.1 °F 14.0 °F 24.1 °F 92% 29.35 in 9.0 mi South 15.0 mph - 0.00 in Snow Light Snow
5:35 AM 26.1 °F 14.0 °F 24.1 °F 92% 29.35 in 9.0 mi South 15.0 mph - 0.00 in Snow Light Snow
5:53 AM 27.0 °F 15.2 °F 25.0 °F 92% 29.36 in 9.0 mi South 15.0 mph - 0.00 in Snow Light Snow
6:53 AM 27.0 °F 15.2 °F 26.1 °F 96% 29.35 in 2.5 mi South 15.0 mph - 0.00 in Snow Light Snow
7:23 AM 27.0 °F 14.7 °F 27.0 °F 100% 29.35 in 4.0 mi South 16.1 mph - 0.00 in Snow Light Snow
7:48 AM 28.4 °F 18.0 °F 28.4 °F 100% 29.35 in 1.0 mi South 12.7 mph - 0.00 in Snow Light Snow
7:53 AM 28.0 °F 17.5 °F 28.0 °F 100% 29.36 in 1.0 mi South 12.7 mph - 0.00 in Snow Light Snow
8:53 AM 30.9 °F 23.5 °F 30.9 °F 100% 29.37 in 0.5 mi SSW 8.1 mph - 0.00 in Snow Light Snow
9:14 AM 32.0 °F 22.5 °F 32.0 °F 100% 29.37 in 1.5 mi WSW 12.7 mph - 0.01 in Snow Light Snow
9:25 AM 33.1 °F 23.4 °F 33.1 °F 100% 29.37 in 1.5 mi WSW 13.8 mph - 0.02 in Snow Light Snow
9:32 AM 34.0 °F 24.2 °F 33.1 °F 96% 29.37 in 2.0 mi WSW 15.0 mph - 0.02 in Snow Light Snow
9:39 AM 34.0 °F 23.4 °F 33.1 °F 96% 29.37 in 3.0 mi WSW 17.3 mph - 0.02 in Snow Light Snow
9:53 AM 34.0 °F 24.2 °F 33.1 °F 96% 29.38 in 9.0 mi WSW 15.0 mph - 0.02 in Snow Light Snow
10:20 AM 33.1 °F 23.0 °F 33.1 °F 100% 29.38 in 3.0 mi WSW 15.0 mph - 0.00 in Snow Light Snow
10:53 AM 33.1 °F 23.4 °F 33.1 °F 100% 29.40 in 3.0 mi SW 13.8 mph - 0.00 in Snow Light Snow
11:04 AM 33.1 °F 23.0 °F 32.0 °F 96% 29.40 in 2.5 mi SW 15.0 mph - 0.00 in Snow Light Snow
11:50 AM 30.2 °F 21.3 °F 30.2 °F 100% 29.41 in 6.0 mi SW 10.4 mph - 0.01 in Snow Light Snow
11:53 AM 30.9 °F 22.2 °F 30.9 °F 100% 29.42 in 6.0 mi SW 10.4 mph - 0.01 in Snow Light Snow
12:07 PM 28.9 °F 19.8 °F 28.0 °F 96% 29.42 in 4.0 mi SSW 10.4 mph - 0.00 in Snow Light Snow
12:53 PM 26.1 °F 16.8 °F 25.0 °F 96% 29.44 in 4.0 mi SSW 9.2 mph - 0.00 in Snow Light Snow
1:53 PM 28.9 °F 21.9 °F 28.0 °F 96% 29.47 in 5.0 mi SSW 6.9 mph - 0.00 in Snow Light Snow
2:53 PM 33.1 °F 26.9 °F 32.0 °F 96% 29.50 in 4.0 mi WNW 6.9 mph - 0.00 in Snow Light Snow
3:40 PM 33.1 °F 25.5 °F 32.0 °F 96% 29.52 in 2.5 mi NW 9.2 mph - 0.00 in   Overcast
3:53 PM 33.1 °F 24.9 °F 33.1 °F 100% 29.53 in 7.0 mi NW 10.4 mph - 0.00 in   Overcast
3:59 PM 33.1 °F 24.9 °F 33.1 °F 100% 29.53 in 2.0 mi WNW 10.4 mph - N/A   Overcast
4:01 PM 33.1 °F 24.4 °F 33.1 °F 100% 29.53 in 1.2 mi WNW 11.5 mph - N/A   Overcast
4:10 PM 33.1 °F 24.9 °F 33.1 °F 100% 29.53 in 0.8 mi NW 10.4 mph - N/A   Overcast
4:15 PM 33.1 °F 24.9 °F 33.1 °F 100% 29.54 in 1.8 mi NW 10.4 mph - N/A   Overcast
4:17 PM 33.1 °F 24.9 °F 33.1 °F 100% 29.54 in 3.0 mi NW 10.4 mph - N/A   Overcast
4:25 PM 34.0 °F 26.0 °F 33.1 °F 96% 29.55 in 4.0 mi NNW 10.4 mph - N/A   Overcast
4:41 PM 34.0 °F 24.6 °F 33.1 °F 96% 29.56 in 3.0 mi NNW 13.8 mph - N/A   Overcast
4:45 PM 33.1 °F 23.4 °F 33.1 °F 100% 29.56 in 1.8 mi NNW 13.8 mph - N/A   Overcast
4:53 PM 33.1 °F 23.0 °F 32.0 °F 96% 29.57 in 1.5 mi NNW 15.0 mph - N/A   Overcast
4:59 PM 33.1 °F 23.4 °F 32.0 °F 96% 29.58 in 3.0 mi NNW 13.8 mph - N/A   Overcast
5:40 PM 32.0 °F 22.1 °F 30.9 °F 96% 29.61 in 1.8 mi NNW 13.8 mph - 0.00 in Snow Light Snow
5:53 PM 33.1 °F 23.4 °F 32.0 °F 96% 29.62 in 1.5 mi NNW 13.8 mph - 0.00 in Snow Light Snow
6:14 PM 33.1 °F 23.4 °F 32.0 °F 96% 29.63 in 2.5 mi NNW 13.8 mph - 0.00 in Snow Light Snow
6:24 PM 33.1 °F 23.4 °F 32.0 °F 96% 29.64 in 3.0 mi NNW 13.8 mph - 0.00 in Snow Light Snow
6:34 PM 33.1 °F 22.6 °F 32.0 °F 96% 29.65 in 4.0 mi NNW 16.1 mph - 0.00 in   Overcast
6:51 PM 33.8 °F 23.2 °F 32.0 °F 93% 29.66 in 3.0 mi NNW 17.3 mph - 0.00 in Rain Light Freezing Rain
6:53 PM 33.1 °F 22.6 °F 32.0 °F 96% 29.67 in 2.5 mi North 16.1 mph - 0.00 in Rain Light Freezing Rain
7:01 PM 33.1 °F 22.6 °F 30.9 °F 92% 29.67 in 6.0 mi NNW 16.1 mph - 0.00 in Rain Light Freezing Rain
7:05 PM 33.1 °F 22.2 °F 30.0 °F 89% 29.67 in 10.0 mi NNW 17.3 mph - 0.00 in   Overcast
7:13 PM 33.1 °F 22.2 °F 30.0 °F 89% 29.68 in 10.0 mi North 17.3 mph - 0.00 in   Overcast
7:21 PM 33.1 °F 22.6 °F 30.0 °F 89% 29.68 in 10.0 mi NNW 16.1 mph - 0.00 in   Mostly Cloudy
7:53 PM 32.0 °F 20.5 °F 30.0 °F 92% 29.71 in 9.0 mi NNW 18.4 mph - 0.00 in   Overcast
8:05 PM 32.0 °F 21.2 °F 30.9 °F 96% 29.72 in 3.0 mi NNW 16.1 mph 24.2 mph 0.00 in Snow Light Snow
8:15 PM 32.0 °F 20.8 °F 30.9 °F 96% 29.72 in 2.5 mi NNW 17.3 mph - 0.00 in Snow Light Snow
8:23 PM 32.0 °F 20.5 °F 30.0 °F 92% 29.73 in 3.0 mi NNW 18.4 mph - 0.00 in Snow Light Snow
8:53 PM 32.0 °F 20.8 °F 30.9 °F 96% 29.76 in 1.8 mi NNW 17.3 mph - 0.00 in Snow Light Snow
9:06 PM 32.0 °F 20.8 °F 30.9 °F 96% 29.76 in 2.0 mi NNW 17.3 mph - 0.00 in Snow Light Snow
9:27 PM 32.0 °F 20.1 °F 30.0 °F 92% 29.77 in 4.0 mi NNW 19.6 mph - 0.00 in Snow Light Snow
9:34 PM 33.1 °F 23.0 °F 30.0 °F 89% 29.78 in 4.0 mi NNW 15.0 mph 27.6 mph 0.00 in Snow Light Snow
9:53 PM 32.0 °F 20.8 °F 30.0 °F 92% 29.80 in 1.8 mi NNW 17.3 mph - 0.00 in Snow Light Snow
10:01 PM 32.0 °F 19.8 °F 30.0 °F 92% 29.80 in 2.0 mi NNW 20.7 mph - 0.00 in Snow Light Snow
10:17 PM 32.0 °F 20.5 °F 30.0 °F 92% 29.81 in 3.0 mi NNW 18.4 mph 26.5 mph 0.00 in Snow Light Snow
10:30 PM 32.0 °F 21.2 °F 30.0 °F 92% 29.82 in 2.5 mi NNW 16.1 mph - 0.00 in Snow Light Snow
10:33 PM 32.0 °F 20.5 °F 30.0 °F 92% 29.82 in 3.0 mi NNW 18.4 mph - 0.00 in Snow Light Snow
10:42 PM 32.0 °F 20.1 °F 30.9 °F 96% 29.82 in 2.5 mi NNW 19.6 mph - 0.00 in Snow Light Snow
10:53 PM 33.1 °F 22.6 °F 30.9 °F 92% 29.83 in 4.0 mi NNW 16.1 mph - 0.00 in Snow Light Snow
11:00 PM 33.1 °F 22.2 °F 30.9 °F 92% 29.83 in 4.0 mi North 17.3 mph - 0.00 in Snow Light Snow
11:53 PM 33.1 °F 21.2 °F 30.9 °F 92% 29.88 in 5.0 mi North 20.7 mph - 0.00 in   Overcast